Location: Central Falls
(41.8900°N, 71.3929°W)
Time: 14:38:45
(UTC+00:00)

Vanguard 1 - Pass Details

Date: 11 December 2023
Orbit: 653 x 3826 km, 34.3° (Epoch: 24 February)

Event Time Altitude Azimuth Distance (km) Brightness Sun altitude
Rises 01:13:47 0° 274° (W) 6,209 14.9 -43.6°
Reaches altitude 10° 01:17:19 10° 271° (W) 5,537 14.5 -44.3°
Maximum altitude 01:35:25 61° 198° (SSW) 3,977 12.8 -47.6°
Enters shadow 01:38:25 58° 173° (S) 4,124 12.8 -48.2°
Drops below altitude 10° 01:58:10 10° 125° (SE) 6,728 - -51.7°
Sets 02:03:04 0° 122° (ESE) 7,545 - -52.6°
